Other Surface Observations
Issued by NWS Charleston, SC

Current Version | Previous Version | Text Only | Print | Product List | Glossary On
Versions: 1 2 3 4 5 6 7 8 9 10 11 12 13 14 15 16 17 18 19 20 21 22 23 24 25 26 27 28 29 30 31 32 33 34 35 36 37 38 39 40 41 42 43 44 45 46 47 48 49 50
000
SXUS52 KCHS 312228
OSOCHS

MARINE OBSERVATIONS
NATIONAL WEATHER SERVICE CHARLESTON SC
600 PM EDT WED AUG 31 2016

...DOWNTOWN CHARLESTON AND HARBOR...

CITY           SKY/WX    TMP DP  RH WIND       PRES   REMARKS
WATERFRONT PRK   N/A     85  77  76 E12       29.86F HX  95

...LAKE MOULTRIE...

CITY           SKY/WX    TMP DP  RH WIND       PRES   REMARKS
PINOPOLIS        N/A     82  73  74 SE7       29.83S

...LAKE AND SUPPLEMENTAL COASTAL OBSERVATIONS...

STATION/POSITION TIME  TEMP    WIND        PRES    WAVE   SWELL
                       AIR SEA DIR/SP/G            HT/PER HT/PER/DIR
                 (UTC) (F)     (DEG/KT/KT) (MB)    (FT/S) (FT/S/D)
FORT PULASKI     2200   81 84                N/A
SAPELO ISLAND    2200   77      20/  4     1011.0S
WINYAH BAY       2145   82     110/  9     1012.0S
LAKE MURRAY      2200   80      10/  3/  4 1012.5S
ACE BASIN NERRS  2100   85     100/  4     1012.0S


...C-MAN AND BUOY OBSERVATIONS...

STATION/POSITION TIME  TEMP    WIND        PRES    WAVE   SWELL
                       AIR SEA DIR/SP/G            HT/PER HT/PER/DIR
                 (UTC) (F)     (DEG/KT/KT) (MB)    (FT/S) (FT/S/D)
BUOY 41004       2150   80 85   90/ 21/ 25 1010.5F   5/ 5   3/ 80/11
BUOY 41008       2150   81 85   10/  2/  4 1011.1R   4/ 7   3/150/ 7
FOLLY BEACH CMAN 2200   81      80/ 14/ 16 1012.3S
CAPERS NS BUOY   2208   81 84   90/ 14/ 19 1012.1R
FRIPP NS BUOY    2208   81 85   80/ 16/ 19 1010.6F
5E ST. MARYS GA  2201      85                N/A     4/ 6   2/ 80/11


STATION/POSITION TIME  TEMP    WIND        PRES    WAVE   SWELL
                       AIR SEA DIR/SP/G            HT/PER HT/PER/DIR
                 (UTC) (F)     (DEG/KT/KT) (MB)    (FT/S) (FT/S/D)
FRYING PAN BUOY  2200   80 84   50/ 10/ 14 1013.1F
BUOY 41025       2150   81 85   30/  4/  6 1013.6S   4/11   3/110/11
CAPE LOOKOUT NC  2200   79     230/  4/  4 1013.7F
BUOY 41002       2150   80 84  170/  4/  6 1014.7F   4/11   3/ 40/11
BUOY 41010       NOT AVBL
ST AUGUSTINE FL  2200   82 83  230/  6/  8 1012.3F

$$




USA.gov is the U.S. government's official web portal to all federal, state and local government web resources and services.